Location: Newark
(56.0692°N, 115.8617°E)
Time: 11:46:13
(UTC+00:00)

Vanguard 2 Rocket - Pass Details

Date: 27 May 2020
Orbit: 556 x 3325 km, 32.9° (Epoch: 14 July)

Event Time Altitude Azimuth Distance (km) Brightness Sun altitude
Rises 13:14:22 0° 261° (W) 6,012 11.6 -3.7°
Reaches altitude 10° 13:19:25 10° 247° (WSW) 5,413 11.1 -4.2°
Maximum altitude 13:30:26 21° 206° (SSW) 5,115 10.5 -5.2°
Drops below altitude 10° 13:43:10 10° 167° (SSE) 6,277 10.6 -6.2°
Enters shadow 13:46:35 - 160° (SSE) 6,742 10.7 -6.5°
Sets 13:49:51 0° 154° (SSE) 7,213 - -6.7°
